GW1838 Weather Reports


Display with metric or nautical units.
time (UTC)temp
F
wind
direction
speed
MPH
gust
MPH
rain 1hr
in
rain 24hr
in
rain mn
in
humidity
%
barometer
mb
20260904145306 84 10 9.0 16.0 0.00 0.01 0.01 72 1010.8
20260904143304 83 5 11.0 20.0 0.00 0.01 0.01 74 1010.8
20260904141805 82 5 10.0 15.0 0.00 0.01 0.01 76 1010.9
20260904140804 82 351 10.0 13.0 0.00 0.01 0.01 78 1010.9
20260904140304 82 350 11.0 15.0 0.00 0.01 0.01 77 1010.8
20260904135805 82 351 13.0 17.0 0.00 0.01 0.01 77 1010.8
20260904135306 82 347 13.0 16.0 0.00 0.01 0.01 78 1010.8
20260904132306 80 346 9.0 15.0 0.00 0.01 0.01 80 1010.5
20260904130804 79 330 10.0 16.0 0.00 0.01 0.01 81 1010.6
20260904125804 79 331 8.0 13.0 0.00 0.01 0.01 81 1010.6
20260904124805 79 326 9.0 14.0 0.00 0.01 0.01 81 1010.5
20260904124304 79 322 9.0 13.0 0.00 0.01 0.01 82 1010.5
20260904123805 79 317 7.0 13.0 0.00 0.01 0.01 82 1010.5
20260904123305 79 321 9.0 16.0 0.00 0.01 0.01 82 1010.6
20260904122804 78 313 7.0 17.0 0.00 0.01 0.01 83 1010.6
20260904121305 78 317 7.0 16.0 0.00 0.01 0.01 84 1010.6
20260904120805 77 297 8.0 16.0 0.00 0.01 0.01 85 1010.6
20260904115306 77 298 6.0 12.0 0.00 0.01 0.01 86 1010.3
20260904114805 77 291 6.0 15.0 0.00 0.01 0.01 87 1010.4
20260904114305 77 283 5.0 12.0 0.00 0.01 0.01 87 1010.4
20260904113805 76 279 3.0 12.0 0.00 0.01 0.01 87 1010.4
20260904112805 76 292 4.0 9.0 0.00 0.01 0.01 87 1010.2
20260904112306 76 276 5.0 10.0 0.00 0.01 0.01 87 1010.2
20260904111305 76 290 5.0 13.0 0.00 0.01 0.01 87 1010.2
20260904105804 76 271 3.0 12.0 0.00 0.01 0.01 87 1010.0
20260904105306 76 271 5.0 10.0 0.00 0.01 0.01 87 1010.0
20260904103304 77 276 5.0 12.0 0.00 0.02 0.01 87 1010.0
20260904102805 77 266 3.0 9.0 0.00 0.02 0.01 87 1010.0
20260904100804 77 262 3.0 7.0 0.00 0.06 0.01 88 1009.9
20260904095306 77 276 5.0 10.0 0.00 0.09 0.01 88 1009.7
20260904094805 77 259 5.0 12.0 0.00 0.10 0.01 88 1009.7
20260904091304 77 263 3.0 10.0 0.00 0.12 0.01 88 1009.8
20260904085805 78 272 3.0 8.0 0.00 0.13 0.01 88 1009.9
20260904085306 78 264 3.0 9.0 0.00 0.13 0.01 88 1010.0
20260904084804 78 275 3.0 12.0 0.00 0.13 0.01 88 1009.9
20260904082804 77 265 4.0 9.0 0.00 0.13 0.01 87 1009.9
20260904081804 78 244 3.0 10.0 0.00 0.13 0.01 86 1009.8
20260904075805 78 257 5.0 10.0 0.00 0.14 0.01 86 1009.8
20260904075306 77 259 5.0 12.0 0.00 0.14 0.01 87 1009.8
20260904074305 77 255 5.0 12.0 0.00 0.16 0.01 87 1009.7
20260904071804 78 236 3.0 7.0 0.00 0.30 0.01 86 1009.5
20260904071305 78 242 3.0 7.0 0.00 0.37 0.01 86 1009.5
20260904070804 78 232 5.0 8.0 0.00 0.45 0.01 86 1009.5
20260904065306 78 245 3.0 6.0 0.01 1.09 0.01 86 1009.6
20260904063804 78 239 2.0 7.0 0.01 1.10 0.01 86 1009.7
20260904060304 78 274 2.0 3.0 0.01 1.10 0.01 85 1010.4
20260904054804 79 264 1.0 3.0 0.00 1.09 0.00 84 1010.3
20260904054304 79 272 2.0 6.0 0.00 1.09 0.00 83 1010.8
20260904052804 79 263 2.0 3.0 0.00 1.09 0.00 82 1010.8
20260904052307 79 264 2.0 3.0 0.00 1.09 0.00 82 1010.7
20260904051804 79 263 2.0 3.0 0.00 1.09 0.00 82 1010.8
20260904051304 79 263 2.0 3.0 0.00 1.09 0.00 82 1010.8
20260904050804 79 267 2.0 6.0 0.00 1.09 0.00 82 1010.9
20260904045306 79 266 2.0 6.0 0.00 1.09 0.00 82 1010.9
20260904043304 79 243 3.0 6.0 0.00 1.09 0.00 82 1011.0
20260904042306 79 245 2.0 5.0 0.00 1.09 0.00 82 1011.1
20260904041804 79 240 2.0 3.0 0.00 1.09 0.00 82 1011.2
20260904034304 79 258 3.0 5.0 0.00 1.09 1.09 83 1011.8
20260904033804 79 255 3.0 7.0 0.00 1.09 1.09 83 1011.8
20260904032306 79 269 4.0 10.0 0.00 1.09 1.09 83 1012.0
20260904031804 80 264 3.0 5.0 0.00 1.09 1.09 83 1012.0
20260904031304 79 266 2.0 3.0 0.00 1.09 1.09 83 1011.8
20260904030804 79 264 2.0 6.0 0.00 1.09 1.09 83 1011.6
20260904030304 79 263 2.0 3.0 0.00 1.09 1.09 83 1011.6
20260904025804 80 279 2.0 5.0 0.00 1.09 1.09 83 1011.6
20260904025306 80 273 2.0 6.0 0.00 1.09 1.09 83 1011.7
20260904024304 80 271 3.0 6.0 0.00 1.09 1.09 83 1011.8
20260904023304 80 255 2.0 5.0 0.00 1.09 1.09 83 1012.1
20260904022305 80 262 2.0 3.0 0.00 1.09 1.09 83 1012.1
20260904020804 80 265 2.0 3.0 0.00 1.09 1.09 83 1012.4
20260904014304 81 266 1.0 5.0 0.00 1.09 1.09 82 1012.4
20260904013804 81 256 2.0 5.0 0.00 1.09 1.09 82 1012.4
20260904012306 81 252 3.0 6.0 0.00 1.09 1.09 82 1012.3
20260904010804 81 243 3.0 9.0 0.00 1.09 1.09 83 1012.3
20260904010304 81 242 3.0 6.0 0.00 1.09 1.09 83 1012.4
20260904005804 81 264 3.0 5.0 0.00 1.09 1.09 83 1012.4
20260904004804 81 257 2.0 5.0 0.00 1.09 1.09 83 1012.5
20260904004305 81 265 2.0 5.0 0.00 1.09 1.09 83 1012.5
20260904002306 82 256 2.0 5.0 0.00 1.09 1.09 82 1012.2
20260904000805 82 255 2.0 3.0 0.00 1.09 1.09 81 1012.1
20260903235805 83 266 2.0 5.0 0.00 1.09 1.09 80 1011.9
20260903233805 83 271 2.0 3.0 0.00 1.09 1.09 78 1011.7
20260903233305 84 268 2.0 3.0 0.00 1.09 1.09 77 1011.6
20260903231805 85 277 1.0 3.0 0.00 1.09 1.09 76 1011.8
20260903231305 85 277 1.0 3.0 0.00 1.09 1.09 75 1011.6
20260903225805 87 271 2.0 6.0 0.00 1.09 1.09 72 1011.4
20260903224804 87 280 1.0 3.0 0.00 1.09 1.09 73 1011.3
20260903224305 87 286 1.0 3.0 0.00 1.09 1.09 73 1011.3
20260903222805 87 270 2.0 6.0 0.00 1.09 1.09 72 1011.3
20260903221304 88 271 3.0 6.0 0.00 1.09 1.09 71 1011.3
20260903220805 88 268 3.0 9.0 0.00 1.09 1.09 70 1011.3
20260903220306 88 265 3.0 7.0 0.00 1.09 1.09 70 1011.3
20260903215804 88 278 5.0 9.0 0.00 1.09 1.09 68 1011.4
20260903213805 89 257 4.0 9.0 0.00 1.09 1.09 66 1011.0
20260903213305 89 250 3.0 6.0 0.00 1.09 1.09 67 1011.0
20260903212805 90 271 4.0 10.0 0.00 1.09 1.09 67 1011.1
20260903212306 89 252 3.0 6.0 0.00 1.09 1.09 67 1011.1
20260903211805 89 256 3.0 9.0 0.00 1.09 1.09 67 1011.1
20260903211305 89 266 3.0 6.0 0.00 1.09 1.09 68 1011.2
20260903210805 89 259 3.0 9.0 0.00 1.09 1.09 67 1011.1
20260903205806 89 260 3.0 6.0 0.00 1.09 1.09 68 1011.2
20260903205306 89 241 3.0 7.0 0.00 1.09 1.09 69 1011.2
20260903195805 90 272 2.0 7.0 0.00 1.09 1.09 67 1011.7
20260903192805 90 253 3.0 7.0 0.00 1.09 1.09 67 1012.0
20260903191804 90 252 4.0 8.0 0.00 1.09 1.09 67 1012.1
20260903191304 90 247 5.0 9.0 0.00 1.09 1.09 65 1012.1
20260903190804 90 251 4.0 7.0 0.00 1.09 1.09 66 1012.1
20260903185804 90 274 3.0 7.0 0.00 1.09 1.09 66 1012.3
20260903184305 87 270 3.0 6.0 0.00 1.09 1.09 74 1012.3
20260903182805 87 236 5.0 12.0 0.00 1.09 1.09 73 1012.5
20260903182306 87 248 7.0 13.0 0.00 1.09 1.09 73 1012.5
20260903181804 87 226 5.0 12.0 0.00 1.09 1.09 73 1012.6
20260903180805 88 240 6.0 12.0 0.00 1.09 1.09 71 1012.8
20260903175805 88 243 3.0 9.0 0.00 1.09 1.09 71 1012.9
20260903174304 89 237 3.0 7.0 0.00 1.09 1.09 70 1013.2
20260903173805 88 249 3.0 9.0 0.00 1.09 1.09 70 1013.3
20260903173304 88 260 3.0 10.0 0.00 1.09 1.09 72 1013.5
20260903172805 87 266 4.0 10.0 0.00 1.09 1.09 73 1013.6
20260903171305 87 253 5.0 7.0 0.00 1.09 1.09 74 1013.8
20260903165306 85 252 5.0 8.0 0.00 1.09 1.09 74 1014.2
20260903164305 85 262 3.0 8.0 0.00 1.09 1.09 75 1014.1
20260903163805 84 254 2.0 7.0 0.00 1.09 1.09 76 1014.0
20260903162306 84 244 3.0 8.0 0.00 1.09 1.09 75 1014.2
20260903161805 84 255 4.0 9.0 0.00 1.09 1.09 75 1014.2
20260903160304 85 244 5.0 9.0 0.00 1.09 1.09 75 1014.2
20260903155805 85 247 5.0 10.0 0.00 1.09 1.09 74 1014.3
20260903155306 85 254 3.0 7.0 0.00 1.09 1.09 74 1014.3
20260903154804 85 266 3.0 7.0 0.00 1.09 1.09 75 1014.4
20260903154304 84 259 2.0 7.0 0.00 1.09 1.09 75 1014.3
20260903152306 83 245 5.0 12.0 0.00 1.09 1.09 76 1014.3
20260903151804 82 257 3.0 7.0 0.00 1.09 1.09 77 1014.4
20260903151305 82 236 5.0 9.0 0.00 1.09 1.09 77 1014.4
20260903145805 82 235 3.0 10.0 0.00 1.09 1.09 78 1014.4